Home   Weather   Huntington Beach   Past weeks

Flag for USA Past Weather in Huntington Beach, California, USA — Yesterday and Last 2 Weeks

Now
43 °F

Clear.


Feels Like: 43 °F
Forecast: 46 / 56 °F
Wind: No wind

Location: John Wayne Airport-Orange County Airport

Current Time: Jan 24, 2017 at 3:30:49 am

Latest Report: Jan 24, 2017 at 2:53 am


Visibility: 10 mi

Pressure: 29.95 "Hg

Humidity: 93%

Dew Point: 41 °F

Location of Huntington BeachLocation

Past Weather in Huntington Beach — Graph

°F

Huntington Beach Temperature Yesterday

Maximum temperature yesterday: 57 °F (at 12:01 am)
Minimum temperature yesterday: 46 °F (at 11:53 pm)
Average temperature yesterday: 53 °F

High & Low Weather Summary for the Past Weeks

 TemperatureHumidityPressure
High67 °F (Jan 14, 12:53 pm)100% (Jan 10, 2:53 am)30.20 "Hg (Jan 10, 2:53 am)
Low44 °F (Jan 24, 1:53 am)42% (Jan 14, 2:53 pm)29.47 "Hg (Jan 20, 2:53 pm)
Average56 °F84%29.99 "Hg
* Reported Jan 9 1:53 am — Jan 24 1:53 am, Huntington Beach, Weather by CustomWeather, © 2017

Note: Actual official high and low records may vary slightly from our data, if they occured in-between our weather recording intervals... More about our weather records

Advertising

Huntington Beach Weather History for the Previous 24 Hours

Scroll right to see more
 ConditionsComfort  
Time TempWeatherWind HumidityBarometerVisibility
1:53 am
Tue, Jan 24
44 °FClear.No wind93%29.93 "Hg10 mi
12:53 am45 °FClear.No wind90%29.93 "Hg10 mi
11:53 pm
Mon, Jan 23
46 °FClear.No wind89%29.92 "Hg10 mi
10:53 pm47 °FPassing clouds.No wind83%29.91 "Hg10 mi
9:53 pm50 °FPassing clouds.No wind74%29.90 "Hg10 mi
8:53 pm51 °FPassing clouds.No wind71%29.88 "Hg10 mi
7:53 pm52 °FPassing clouds.No wind72%29.87 "Hg10 mi
6:53 pm53 °FPartly cloudy.6 mph69%29.87 "Hg10 mi
5:53 pm53 °FPassing clouds.7 mph61%29.86 "Hg10 mi
4:53 pm53 °FPartly sunny.8 mph64%29.85 "Hg10 mi
3:53 pm54 °FBroken clouds.12 mph62%29.85 "Hg10 mi
2:53 pm54 °FBroken clouds.9 mph67%29.85 "Hg10 mi
1:53 pm55 °FBroken clouds.10 mph64%29.86 "Hg10 mi
12:53 pm55 °FBroken clouds.13 mph62%29.86 "Hg10 mi
11:53 am56 °FPartly sunny.12 mph67%29.89 "Hg10 mi
10:53 am54 °FBroken clouds.13 mph67%29.92 "Hg10 mi
10:36 am53 °FLight rain. Partly sunny.8 mph69%29.93 "Hg10 mi
9:53 am53 °FPartly sunny.5 mph77%29.93 "Hg10 mi
9:31 am50 °FPartly sunny.3 mph86%29.93 "Hg10 mi
9:11 am49 °FThundershowers. Partly sunny.3 mph86%29.93 "Hg10 mi
8:53 am51 °FThunderstorms. Partly sunny.10 mph74%29.92 "Hg7 mi
8:30 am56 °FThundershowers. Broken clouds.7 mph72%29.91 "Hg10 mi
7:53 am53 °FBroken clouds.3 mph80%29.90 "Hg10 mi
6:53 am55 °FBroken clouds.7 mph72%29.90 "Hg10 mi
5:56 am54 °FPassing clouds.9 mph74%29.90 "Hg10 mi
4:53 am55 °FPassing clouds.5 mph74%29.89 "Hg10 mi
3:53 am55 °FPassing clouds.8 mph77%29.90 "Hg10 mi
Weather by CustomWeather, © 2017

See weather overviewHow to use our weather pages